Tracking 17558 objects as of 9-February-2016
HD Live streaming from Space Station
objects crossing your sky now

CZ-4B DEB

Track CZ-4B DEB now!
10-day predictions


NORAD ID: 36290
Int'l Code: 2008-053L
Perigee: 565.8 km
Apogee: 596.9 km
Inclination: 97.6 °
Period: 96.2 minutes
Semi major axis: 6952 km
RCS: 0.0218 m2 (small)
Launch date: October 25, 2008
Source: People's Republic of China (PRC)
Launch site: Taiyaun Space Center, China (TSC)

Note: This is SATELLITE DEBRIS
Your satellite tracking list
Your tracking list is empty





NASA's NSSDC Master Catalog

Two Line Element Set (TLE):
1 36290U 08053L   16039.80897112  .00001732  00000-0  15223-3 0  9990
2 36290  97.5583  37.2806 0022422  42.0466 318.2472 14.9763308637610
Source of the keplerian elements: AFSPC

N2YO: 1268